Location: Central Falls
(41.8900°N, 71.3929°W)
Time: 21:54:51
(UTC+00:00)

Explorer 7 - All Passes

Search period start: 06 December 2023 00:00
Search period end: 16 December 2023 00:00
Orbit: 472 x 640 km, 50.3° (Epoch: 06 December)

Date Brightness Start Highest point End Pass type
(mag) Time Alt. Az. Time Alt. Az. Time Alt. Az.
06 Dec - 00:43:45 10° NW 00:47:15 37° NNE 00:50:51 10° E visible
06 Dec - 02:23:35 10° WNW 02:27:13 45° SW 02:30:59 10° SE night (unlit)
06 Dec - 18:02:13 10° SE 18:03:03 11° SE 18:03:53 10° ESE daylight
06 Dec - 19:38:39 10° SW 19:42:24 73° SE 19:46:05 10° ENE daylight
06 Dec - 21:19:17 10° WNW 21:22:33 29° NNW 21:25:49 10° NE daylight
06 Dec - 23:00:18 10° NW 23:03:16 22° N 23:06:16 10° ENE visible
07 Dec - 00:40:11 10° NW 00:43:47 47° NNE 00:47:30 10° E visible
07 Dec - 02:20:13 10° WNW 02:23:36 31° SW 02:27:06 10° SSE night (unlit)
07 Dec - 17:56:58 10° S 17:59:20 16° SE 18:01:39 10° E daylight
07 Dec - 19:35:05 10° WSW 19:38:50 80° NNW 19:42:32 10° ENE daylight
07 Dec - 21:16:00 10° WNW 21:19:08 25° NNW 21:22:16 10° NE daylight
07 Dec - 22:56:49 10° NW 22:59:52 24° N 23:02:57 10° ENE visible
08 Dec - 00:36:35 10° NW 00:40:17 62° NNE 00:44:05 10° ESE visible
08 Dec - 02:16:57 10° W 02:19:56 22° SW 02:22:59 10° S night (unlit)
08 Dec - 17:52:35 10° S 17:55:38 23° SE 17:58:37 10° E daylight
08 Dec - 19:31:34 10° WSW 19:35:17 59° NNW 19:38:57 10° NE daylight
08 Dec - 21:12:41 10° WNW 21:15:43 23° N 21:18:45 10° NE daylight
08 Dec - 22:53:17 10° NW 22:56:27 26° NNE 22:59:38 10° ENE visible
09 Dec - 00:33:00 10° WNW 00:36:43 84° NNE 00:40:33 10° ESE visible
09 Dec - 02:13:56 10° W 02:16:14 15° SW 02:18:34 10° S night (unlit)
09 Dec - 17:48:29 10° SSW 17:51:56 32° SE 17:55:19 10° ENE daylight
09 Dec - 19:28:08 10° W 19:31:46 45° NNW 19:35:19 10° NE daylight
09 Dec - 21:09:20 10° WNW 21:12:18 22° N 21:15:14 10° NE daylight
09 Dec - 22:49:42 10° NW 22:52:59 30° NNE 22:56:19 10° E visible
10 Dec - 00:29:26 10° WNW 00:33:07 70° SW 00:36:55 10° SE visible
10 Dec - 02:11:52 10° WSW 02:12:29 10° SW 02:13:04 10° SW night (unlit)
10 Dec - 17:44:33 10° SW 17:48:17 47° SE 17:51:52 10° ENE daylight
10 Dec - 19:24:44 10° W 19:28:15 36° NNW 19:31:42 10° NE daylight
10 Dec - 21:05:56 10° NW 21:08:52 22° N 21:11:47 10° NE daylight
10 Dec - 22:46:05 10° NW 22:49:30 35° NNE 22:52:57 10° E visible
11 Dec - 00:25:54 10° WNW 00:29:29 48° SW 00:33:09 10° SE visible
11 Dec - 16:05:00 10° SE 16:05:16 10° SE 16:05:33 10° SE daylight
11 Dec - 17:40:46 10° SW 17:44:37 68° SE 17:48:20 10° ENE daylight
11 Dec - 19:21:22 10° W 19:24:44 30° NNW 19:28:03 10° NE daylight
11 Dec - 21:02:28 10° NW 21:05:25 22° N 21:08:22 10° ENE daylight
11 Dec - 22:42:25 10° NW 22:45:58 43° NNE 22:49:33 10° E visible
12 Dec - 00:22:25 10° WNW 00:25:48 33° SW 00:29:14 10° SSE visible
12 Dec - 15:59:10 10° S 16:01:29 15° SE 16:03:44 10° E daylight
12 Dec - 17:37:06 10° WSW 17:40:58 87° NNW 17:44:43 10° ENE daylight
12 Dec - 19:17:59 10° WNW 19:21:14 26° NNW 19:24:26 10° NE daylight
12 Dec - 20:58:56 10° NW 21:01:57 23° N 21:04:58 10° ENE daylight
12 Dec - 22:38:46 10° NW 22:42:23 57° NNE 22:46:04 10° ESE visible
13 Dec - 00:19:04 10° W 00:22:04 23° SW 00:25:07 10° S visible
13 Dec - 15:54:37 10° S 15:57:42 22° SE 16:00:40 10° E daylight
13 Dec - 17:33:29 10° WSW 17:37:21 64° NNW 17:41:04 10° NE daylight
13 Dec - 19:14:36 10° WNW 19:17:44 24° N 19:20:49 10° NE daylight
13 Dec - 20:55:20 10° NW 20:58:28 25° NNE 21:01:35 10° ENE daylight
13 Dec - 22:35:05 10° NW 22:38:47 77° NNE 22:42:30 10° ESE visible
14 Dec - 00:15:55 10° W 00:18:17 16° SW 00:20:41 10° S visible
14 Dec - 15:50:24 10° SSW 15:53:56 30° SE 15:57:20 10° ENE daylight
14 Dec - 17:29:57 10° WSW 17:33:44 49° NNW 17:37:23 10° NE daylight
14 Dec - 19:11:11 10° WNW 19:14:14 23° N 19:17:14 10° NE daylight
14 Dec - 20:51:41 10° NW 20:54:56 28° NNE 20:58:11 10° ENE daylight
14 Dec - 22:31:26 10° WNW 22:35:07 77° SW 22:38:49 10° SE visible
15 Dec - 00:13:24 10° WSW 00:14:28 11° SW 00:15:31 10° SSW visible
15 Dec - 15:46:21 10° SSW 15:50:11 43° SE 15:53:50 10° ENE daylight
15 Dec - 17:26:27 10° W 17:30:08 39° NNW 17:33:41 10° NE daylight
15 Dec - 19:07:43 10° NW 19:10:44 22° N 19:13:41 10° NE daylight
15 Dec - 20:47:59 10° NW 20:51:23 33° NNE 20:54:46 10° E daylight
15 Dec - 22:27:48 10° WNW 22:31:24 53° SW 22:35:01 10° SE visible
